JP7FSO Weather Reports


time (UTC)temp
C
wind
direction
speed
KPH
gust
KPH
rain 1hr
cm
rain 24hr
cm
rain mn
cm
humidity
%
barometer
mb
20260905184612 18 219 0.0 0.0 0.00 0.00 0.00 87 1008.8
20260905183054 18 219 0.0 0.0 0.00 0.00 0.00 87 1008.8
20260905181558 19 219 0.0 0.0 0.00 0.00 0.00 87 1008.9
20260905180053 19 219 0.0 0.0 0.00 0.00 0.00 86 1008.9
20260905174551 19 219 0.0 0.0 0.00 0.00 0.00 86 1009.1
20260905173052 19 219 0.0 0.0 0.00 0.00 0.00 86 1009.0
20260905171548 19 219 0.0 0.0 0.00 0.00 0.00 86 1008.8
20260905170048 19 219 0.0 0.0 0.00 0.00 0.00 86 1008.9
20260905164547 19 219 0.0 0.0 0.00 0.00 0.00 86 1009.0
20260905163046 19 221 0.0 0.0 0.00 0.00 0.00 85 1008.8
20260905161547 20 114 0.0 0.0 0.00 0.00 0.00 85 1008.9
20260905160048 20 114 0.0 0.0 0.00 0.00 0.00 85 1008.8
20260905154607 20 114 0.0 0.0 0.00 0.00 0.00 85 1008.8
20260905153041 20 114 0.0 0.0 0.00 0.00 0.00 85 1009.0
20260905151540 20 114 0.0 0.0 0.00 0.00 0.00 85 1009.2
20260905150039 20 114 0.0 0.0 0.00 0.00 0.00 84 1009.1
20260905144540 20 131 0.0 0.0 0.00 0.00 0.00 83 1009.0
20260905143037 20 192 0.0 0.0 0.00 0.00 0.00 83 1008.9
20260905141537 20 192 0.0 0.0 0.00 0.00 0.00 82 1008.7
20260905140041 20 192 0.0 0.0 0.00 0.00 0.00 81 1009.2
20260905134537 20 137 0.0 0.0 0.00 0.00 0.00 81 1009.2
20260905133042 21 115 0.0 0.0 0.00 0.00 0.00 80 1008.8
20260905131540 21 115 0.0 0.0 0.00 0.00 0.00 79 1008.8
20260905130038 21 115 0.0 0.0 0.00 0.00 0.00 78 1008.9
20260905124535 21 214 0.0 0.0 0.00 0.00 0.00 77 1008.8
20260905123032 21 214 0.0 0.0 0.00 0.00 0.00 77 1008.8
20260905121532 21 214 0.0 0.0 0.00 0.00 0.00 77 1008.8
20260905120031 21 214 0.0 0.0 0.00 0.00 0.00 77 1008.9
20260905114532 21 214 0.0 0.0 0.00 0.00 0.00 76 1008.9
20260905113042 21 214 0.0 0.0 0.00 0.00 0.00 75 1008.6
20260905111543 21 214 0.0 0.0 0.00 0.00 0.00 74 1008.4
20260905110038 22 181 0.0 0.0 0.00 0.00 0.00 74 1008.4
20260905104529 22 251 0.0 0.0 0.00 0.00 0.00 72 1008.3
20260905103028 22 251 0.0 0.0 0.00 0.00 0.00 71 1008.2
20260905101540 22 251 0.0 0.0 0.00 0.00 0.00 71 1007.8
20260905100031 22 161 0.0 0.0 0.00 0.00 0.00 70 1007.5
20260905094509 23 228 0.0 0.0 0.00 0.00 0.00 68 1007.1
20260905091516 24 177 0.0 0.0 0.00 0.00 0.00 65 1006.5
20260905090025 25 192 0.0 0.0 0.00 0.00 0.00 63 1006.2
20260905084537 25 141 0.0 0.0 0.00 0.00 0.00 60 1006.0
20260905083015 26 148 0.0 0.0 0.00 0.00 0.00 58 1005.8
20260905081510 26 171 0.0 0.0 0.00 0.00 0.00 56 1005.6
20260905080036 27 186 0.0 0.0 0.00 0.00 0.00 52 1005.4
20260905074510 28 191 0.0 0.0 0.00 0.00 0.00 49 1005.2
20260905071535 29 206 0.0 0.0 0.00 0.00 0.00 46 1005.1
20260905070004 30 236 0.0 0.0 0.00 0.00 0.00 44 1004.7
20260905064558 30 245 0.0 0.0 0.00 0.00 0.00 44 1004.6
20260905063102 31 231 0.0 0.0 0.00 0.00 0.00 43 1004.5
20260905061530 31 139 0.0 0.0 0.00 0.00 0.00 44 1004.3
20260905060023 31 148 0.0 0.0 0.00 0.00 0.00 42 1004.3
20260905054509 31 243 0.0 0.0 0.00 0.00 0.00 41 1004.4
20260905053011 31 255 0.0 0.0 0.00 0.00 0.00 42 1004.2
20260905051553 31 217 0.0 0.0 0.00 0.00 0.00 41 1004.2
20260905050016 31 187 0.0 0.0 0.00 0.00 0.00 42 1004.1
20260905044534 32 234 0.0 0.0 0.00 0.00 0.00 38 1004.1
20260905043001 32 179 1.6 0.0 0.00 0.00 0.00 39 1004.1
20260905040026 31 243 1.6 0.0 0.00 0.00 0.00 39 1004.1
20260905034619 31 245 0.0 0.0 0.00 0.00 0.00 40 1004.3
20260905033118 31 108 0.0 0.0 0.00 0.00 0.00 42 1004.4
20260905031505 31 136 0.0 0.0 0.00 0.00 0.00 42 1004.5
20260905030040 31 134 1.6 0.0 0.00 0.00 0.00 40 1004.6
20260905024612 31 259 0.0 0.0 0.00 0.00 0.00 42 1004.6
20260905023031 30 108 0.0 0.0 0.00 0.00 0.00 43 1004.8
20260905021605 30 137 0.0 0.0 0.00 0.00 0.00 43 1005.0
20260905014559 28 117 0.0 0.0 0.00 0.00 0.00 45 1005.3
20260905013018 28 127 1.6 0.0 0.00 0.00 0.00 46 1005.4
20260905011610 28 142 0.0 0.0 0.00 0.00 0.00 50 1005.7
20260905004518 26 113 0.0 0.0 0.00 0.00 0.00 55 1005.7
20260905003023 26 94 3.2 0.0 0.00 0.00 0.00 54 1005.7
20260905001524 26 96 1.6 0.0 0.00 0.00 0.00 56 1005.7
20260905000002 25 195 0.0 0.0 0.00 0.00 0.00 60 1005.7
20260904234519 25 138 0.0 0.0 0.00 0.00 0.00 64 1005.7
20260904233018 23 120 0.0 0.0 0.00 0.00 0.00 68 1005.7
20260904231514 22 131 0.0 0.0 0.00 0.00 0.00 72 1005.7
20260904224517 20 129 0.0 0.0 0.00 0.00 0.00 79 1005.6
20260904223016 20 235 0.0 0.0 0.00 0.00 0.00 82 1005.6
20260904221518 18 235 0.0 0.0 0.00 0.00 0.00 84 1005.6
20260904220001 18 238 0.0 0.0 0.00 0.00 0.00 85 1005.6
20260904214526 18 219 0.0 0.0 0.00 0.00 0.00 85 1005.4
20260904213105 18 170 0.0 0.0 0.00 0.00 0.00 84 1005.3
20260904211502 18 170 0.0 0.0 0.00 0.00 0.00 84 1005.3
20260904210018 18 170 0.0 0.0 0.00 0.00 0.00 83 1005.2
20260904204521 18 170 0.0 0.0 0.00 0.00 0.00 83 1005.2
20260904203054 18 170 0.0 0.0 0.00 0.00 0.00 83 1005.1
20260904201508 18 170 0.0 0.0 0.00 0.00 0.00 82 1004.8
20260904194509 18 170 0.0 0.0 0.00 0.00 0.00 82 1004.7
20260904193024 18 170 0.0 0.0 0.00 0.00 0.00 82 1004.7
20260904191525 18 170 0.0 0.0 0.00 0.00 0.00 83 1004.7
20260904190011 18 170 0.0 0.0 0.00 0.00 0.00 83 1004.6